DW7699 Weather Reports


time (UTC)temp
F
wind
direction
speed
knots
gust
knots
rain 1hr
in
rain 24hr
in
rain mn
in
humidity
%
barometer
mb
20260502151543 63 0 2.6 8.7 0.00 0.00 0.00 22 1018.4
20260502123048 39 0 0.0 0.0 0.00 0.00 0.00 58 1018.4
20260502121551 38 0 0.0 0.0 0.00 0.00 0.00 58 1018.5
20260502114548 39 0 0.0 0.0 0.00 0.00 0.00 55 1018.4
20260502113051 39 0 0.0 0.0 0.00 0.00 0.00 56 1018.4
20260502111551 39 0 0.0 0.0 0.00 0.00 0.00 54 1018.5
20260502110044 39 0 0.0 0.0 0.00 0.00 0.00 56 1018.6
20260502104549 39 0 0.0 0.0 0.00 0.00 0.00 56 1018.6
20260502103047 38 0 0.0 0.0 0.00 0.00 0.00 56 1018.7
20260502101550 38 0 0.0 0.0 0.00 0.00 0.00 54 1018.7
20260502070101 37 0 0.0 1.7 0.00 0.00 0.00 58 1020.3
20260502064541 37 251 0.0 2.6 0.00 0.00 0.00 59 1020.3
20260502063045 37 0 0.0 2.6 0.00 0.00 0.00 64 1020.5
20260502061550 38 0 0.0 1.7 0.00 0.00 0.00 64 1020.3
20260502060042 38 314 0.0 2.6 0.00 0.00 0.00 60 1020.3
20260502054544 39 320 0.0 7.0 0.00 0.00 0.00 61 1020.3
20260502053041 39 0 0.0 2.6 0.00 0.00 0.00 61 1020.3
20260502051603 40 0 0.0 2.6 0.00 0.00 0.00 62 1020.4
20260502050047 40 295 0.0 5.2 0.00 0.00 0.00 59 1020.4
20260502044541 39 0 0.0 1.7 0.00 0.00 0.00 62 1020.6
20260502043044 40 0 0.0 1.7 0.00 0.00 0.00 62 1020.6
20260502041602 40 0 0.0 1.7 0.00 0.00 0.00 60 1020.7
20260502040045 41 307 0.0 1.7 0.00 0.00 0.00 59 1020.7
20260502034545 40 0 0.0 0.0 0.00 0.00 0.00 61 1020.8
20260502033058 41 0 0.0 0.0 0.00 0.00 0.00 61 1020.7
20260502031542 41 0 0.0 0.0 0.00 0.00 0.00 59 1020.6
20260502030048 42 0 0.0 0.0 0.00 0.00 0.00 60 1020.5
20260502024540 42 0 0.0 0.0 0.00 0.00 0.00 59 1020.5
20260502023051 43 0 0.0 0.0 0.00 0.00 0.00 59 1020.3
20260502021542 43 0 0.0 0.0 0.00 0.00 0.00 59 1020.3
20260502020054 43 0 0.9 1.7 0.00 0.00 0.00 61 1020.1
20260502014549 45 0 0.0 0.0 0.00 0.00 0.00 57 1020.1
20260502013048 47 0 0.0 0.0 0.00 0.00 0.00 52 1020.0
20260502011546 49 0 0.0 0.0 0.00 0.00 0.00 47 1019.9
20260502010043 55 0 0.0 3.5 0.00 0.00 0.00 40 1019.8
20260502004541 56 0 0.0 2.6 0.00 0.00 0.00 35 1019.7
20260502003039 56 307 0.9 6.1 0.00 0.00 0.00 31 1019.7
20260502001542 57 342 0.9 7.8 0.00 0.00 0.00 30 1019.7
20260502000044 57 0 0.0 1.7 0.00 0.00 0.00 29 1019.7
20260501234544 58 296 0.9 7.8 0.00 0.00 0.00 27 1019.7
20260501233045 60 302 0.9 7.8 0.00 0.00 0.00 26 1019.7
20260501231556 63 313 0.0 8.7 0.00 0.00 0.00 26 1019.6
20260501230041 62 0 0.0 6.1 0.00 0.00 0.00 28 1019.6
20260501224544 63 316 1.7 10.4 0.00 0.00 0.00 25 1019.6
20260501223110 62 63 2.6 9.6 0.00 0.00 0.00 25 1019.6
20260501221551 62 204 0.0 8.7 0.00 0.00 0.00 29 1019.6
20260501220045 64 0 0.0 7.8 0.00 0.00 0.00 26 1019.6
20260501214549 63 0 0.0 8.7 0.00 0.00 0.00 27 1019.7
20260501213047 64 297 1.7 7.8 0.00 0.00 0.00 31 1019.7
20260501211546 63 285 2.6 9.6 0.00 0.00 0.00 24 1019.9
20260501210044 60 0 2.6 13.9 0.00 0.00 0.00 31 1019.9
20260501204550 62 323 3.5 12.2 0.00 0.00 0.00 25 1020.0
20260501203044 63 298 1.7 9.6 0.00 0.00 0.00 29 1019.9
20260501201543 61 296 2.6 10.4 0.00 0.00 0.00 28 1020.0
20260501200047 62 300 4.3 11.3 0.00 0.00 0.00 27 1020.1
20260501194546 63 288 3.5 10.4 0.00 0.00 0.00 26 1020.0
20260501193046 59 294 2.6 12.2 0.00 0.00 0.00 28 1019.9
20260501191543 61 0 2.6 8.7 0.00 0.00 0.00 31 1020.0
20260501190043 61 302 0.9 9.6 0.00 0.00 0.00 28 1019.9
20260501184542 60 279 0.0 8.7 0.00 0.00 0.00 30 1020.0
20260501183046 62 292 1.7 13.0 0.00 0.00 0.00 28 1020.1
20260501181546 60 300 0.9 9.6 0.00 0.00 0.00 28 1020.1
20260501180056 60 334 0.0 7.0 0.00 0.00 0.00 28 1020.1
20260501174600 59 11 0.9 12.2 0.00 0.00 0.00 31 1020.1
20260501173042 57 0 1.7 14.8 0.00 0.00 0.00 32 1020.0
20260501171546 59 278 2.6 13.0 0.00 0.00 0.00 30 1020.0
20260501170051 59 341 1.7 8.7 0.00 0.00 0.00 31 1020.1
20260501164543 56 289 3.5 12.2 0.00 0.00 0.00 34 1020.0
20260501163045 57 311 2.6 11.3 0.00 0.00 0.00 30 1019.9
20260501161545 55 298 3.5 12.2 0.00 0.00 0.00 31 1019.8
20260501160057 55 0 2.6 9.6 0.00 0.00 0.00 35 1019.8
20260501154547 54 304 3.5 13.0 0.00 0.00 0.00 33 1019.8
20260501153044 53 321 3.5 11.3 0.00 0.00 0.00 33 1019.8